Home   Weather   Karachi   Past weeks

Flag for Pakistan Past Weather in Karachi, Sindh, Pakistan — Yesterday and Last 2 Weeks

Now
88 °F

Clear.


Feels Like: 91 °F
Forecast: 77 / 88 °F
Wind: 12 mph from Southwest

Location: Karachi Airport

Current Time: Apr 24, 2017 at 12:32:04 pm

Latest Report: Apr 24, 2017 at 11:55 am


Visibility: 3 mi

Pressure: 29.77 "Hg

Humidity: 52%

Dew Point: 68 °F

Location of KarachiLocation

Past Weather in Karachi — Graph

°F

Karachi Temperature Yesterday

Maximum temperature yesterday: 91 °F (at 11:25 am)
Minimum temperature yesterday: 79 °F (at 5:00 am)
Average temperature yesterday: 84 °F

High & Low Weather Summary for the Past Weeks

 TemperatureHumidityPressure
High100 °F (Apr 20, 3:00 pm)84% (Apr 21, 3:55 am)29.86 "Hg (Apr 21, 3:55 am)
Low79 °F (Apr 12, 4:25 am)10% (Apr 9, 3:55 pm)29.59 "Hg (Apr 19, 3:55 pm)
Average85 °F62%29.68 "Hg
* Reported Apr 9 3:55 pm — Apr 24 10:55 am, Karachi, Weather by CustomWeather, © 2017

Note: Actual official high and low records may vary slightly from our data, if they occured in-between our weather recording intervals... More about our weather records

Advertising

Karachi Weather History for the Previous 24 Hours

Scroll right to see more
 ConditionsComfort  
Time TempWeatherWind HumidityBarometerVisibility
10:55 am
Mon, Apr 24
86 °FClear.9 mph55%29.77 "Hg3 mi
10:25 am86 °FClear.7 mph59%29.77 "Hg3 mi
9:55 am86 °FClear.9 mph59%29.77 "Hg3 mi
9:25 am84 °FClear.6 mph62%29.77 "Hg3 mi
8:55 am84 °FPassing clouds.6 mph62%29.74 "Hg3 mi
8:25 am82 °FPassing clouds.6 mph66%29.74 "Hg3 mi
7:55 am81 °FPassing clouds.8 mph70%29.74 "Hg3 mi
7:25 am81 °FPassing clouds.8 mph74%29.71 "Hg3 mi
6:55 am79 °FPassing clouds.7 mph79%29.71 "Hg3 mi
6:25 am79 °FSmoke.10 mph79%29.71 "Hg3 mi
5:55 am79 °FPassing clouds.7 mph84%29.71 "Hg4 mi
4:55 am79 °FPassing clouds.7 mph84%29.68 "Hg4 mi
4:25 am79 °FPassing clouds.3 mph84%29.68 "Hg4 mi
3:55 am79 °FPassing clouds.3 mph84%29.68 "Hg4 mi
3:25 am79 °FPassing clouds.6 mph84%29.68 "Hg4 mi
2:55 am79 °FPassing clouds.8 mph84%29.68 "Hg4 mi
2:25 am81 °FPassing clouds.12 mph74%29.68 "Hg4 mi
1:55 am81 °FPassing clouds.10 mph74%29.71 "Hg4 mi
1:25 am81 °FPassing clouds.9 mph74%29.71 "Hg4 mi
12:55 am81 °FPassing clouds.8 mph74%29.71 "Hg4 mi
12:25 am81 °FPassing clouds.7 mph74%29.71 "Hg4 mi
11:55 pm
Sun, Apr 23
81 °FPassing clouds.6 mph74%29.71 "Hg4 mi
11:25 pm81 °FPassing clouds.9 mph74%29.74 "Hg4 mi
10:55 pm81 °FPassing clouds.12 mph74%29.74 "Hg4 mi
10:25 pm82 °FPassing clouds.7 mph70%29.74 "Hg4 mi
9:55 pm82 °FPassing clouds.13 mph74%29.71 "Hg4 mi
9:25 pm82 °FPassing clouds.9 mph74%29.71 "Hg4 mi
8:55 pm82 °FClear.7 mph74%29.71 "Hg4 mi
8:25 pm82 °FClear.12 mph70%29.68 "Hg4 mi
7:55 pm82 °FHaze.12 mph70%29.68 "Hg3 mi
7:25 pm82 °FHaze.12 mph70%29.68 "Hg2 mi
6:55 pm82 °FHaze.12 mph70%29.68 "Hg2 mi
5:55 pm84 °FHaze.14 mph66%29.68 "Hg2 mi
4:55 pm88 °FHaze.14 mph55%29.65 "Hg3 mi
4:29 pm88 °FHaze.12 mph55%29.65 "Hg3 mi
3:55 pm90 °FHaze.14 mph52%29.65 "Hg3 mi
3:25 pm91 °FHaze.14 mph49%29.65 "Hg3 mi
2:55 pm91 °FHaze.14 mph49%29.65 "Hg3 mi
2:25 pm91 °FHaze.15 mph49%29.68 "Hg3 mi
1:55 pm91 °FHaze.8 mph49%29.68 "Hg3 mi
1:25 pm91 °FHaze.8 mph49%29.71 "Hg3 mi
12:55 pm91 °FHaze.5 mph49%29.71 "Hg3 mi
Weather by CustomWeather, © 2017

See weather overviewHow to use our weather pages